Location: *
(6.0000°S, 32.3997°W)
Time: 13:56:28
(UTC+00:00)

Cosmos 1892 Rocket - Pass Details

Date: 01 April 2020
Orbit: 605 x 634 km, 82.5° (Epoch: 04 June)

Event Time Altitude Azimuth Distance (km) Brightness Sun altitude
Rises 21:28:20 0° 356° (N) 2,909 7.1 -19.1°
Reaches altitude 10° 21:30:34 10° 356° (N) 2,004 6.2 -19.7°
Maximum altitude 21:35:01 90° 327° (NNW) 634 3.5 -20.8°
Drops below altitude 10° 21:39:28 10° 176° (S) 2,004 6.1 -21.9°
Sets 21:41:42 0° 176° (S) 2,910 6.9 -22.5°
